This is the latest recevied weather packets stored in our database for station/object KE2HEH. If no packets are shown the sender has not sent any weather packets the latest 10 day(s).
| Time | Temp. | Humidity | Pressure | Rain* | Wind** | Luminosity | Snow |
|---|---|---|---|---|---|---|---|
| 1777739062 | 12.22° C | 84% | 1012.7 hPa | 0 mm | - | 277 W/m² | - |
| 1777738759 | 12.22° C | 84% | 1012.6 hPa | 0 mm | - | 288 W/m² | - |
| 1777738455 | 12.78° C | 84% | 1012.7 hPa | 0 mm | - | 287 W/m² | - |
| 1777738153 | 12.22° C | 85% | 1012.6 hPa | 0 mm | - | 399 W/m² | - |
| 1777737851 | 12.22° C | 85% | 1012.7 hPa | 0 mm | - | 416 W/m² | - |
| 1777737549 | 12.22° C | 85% | 1012.7 hPa | 0 mm | - | 367 W/m² | - |
| 1777737248 | 12.22° C | 86% | 1012.8 hPa | 0 mm | - | 458 W/m² | - |
| 1777736943 | 12.22° C | 85% | 1012.9 hPa | 0 mm | - | 447 W/m² | - |
| 1777736026 | 12.22° C | 86% | 1012.8 hPa | 0 mm | - | 290 W/m² | - |
| 1777735723 | 11.67° C | 86% | 1012.9 hPa | 0 mm | - | 282 W/m² | - |
| 1777735420 | 11.67° C | 86% | 1012.7 hPa | 0 mm | - | 246 W/m² | - |
| 1777735118 | 11.67° C | 86% | 1012.8 hPa | 0 mm | - | 231 W/m² | - |
| 1777734814 | 11.67° C | 86% | 1012.8 hPa | 0 mm | - | 222 W/m² | - |
| 1777734512 | 11.67° C | 86% | 1012.9 hPa | 0 mm | - | 211 W/m² | - |
| 1777734208 | 11.67° C | 86% | 1012.8 hPa | 0 mm | - | 197 W/m² | - |
| 1777733904 | 11.67° C | 87% | 1012.8 hPa | 0 mm | - | 183 W/m² | - |
| 1777733601 | 11.67° C | 87% | 1013 hPa | 0 mm | - | 211 W/m² | - |
| 1777733297 | 11.67° C | 87% | 1013 hPa | 0 mm | - | 171 W/m² | - |
| 1777732995 | 11.67° C | 87% | 1012.9 hPa | 0 mm | - | 183 W/m² | - |
| 1777732690 | 11.67° C | 87% | 1012.9 hPa | 0 mm | - | 189 W/m² | - |
| 1777732388 | 11.67° C | 87% | 1013 hPa | 0 mm | - | 205 W/m² | - |
| 1777732085 | 11.67° C | 87% | 1013.1 hPa | 0 mm | - | 153 W/m² | - |
| 1777731782 | 11.67° C | 87% | 1013.1 hPa | 0 mm | - | 114 W/m² | - |
| 1777731479 | 11.67° C | 86% | 1012.9 hPa | 0 mm | - | 109 W/m² | - |
| 1777731177 | 12.22° C | 86% | 1012.9 hPa | 0 mm | - | 154 W/m² | - |
* Rain latest hour (hover to see other rain measurements)
** Current wind speed in m/s (hover to see current wind gust speed)